PEGASUS DEB, 24007

Orbit data source: Space-Track

PEGASUS DEB, 24007 is space debris in LEO originally from a launch on Thu, 19 May 1994 UTC launched from the Air Force Western Test Range (AFWTR). Debris objects in space refer to the collection of defunct objects orbiting the Earth. Examples of debris include non-operational satellites, rocket bodies, and fragments generated from explosions, collisions, or faulty payload assembly.

Loading next visibility...
Identifier
24007, 1994-029BC
Orbit
LEO
Country
Flag of USUS
Related business
Manufacturer
Unknown
Mission
Spacecraft
Bus & Motor
Unknown
Mass
Unknown
Launch date (UTC)
1994-05-19 (32 years ago)
Launch vehicle
Unknown
Launch site
Air Force Western Test Range (AFWTR)
Object type
Payload
Rocket body
Debris
Shape & HBR
Unknown shape, 0.1 m
Radar Cross Section
Medium (>0.1 m² and <1 m²)

Expand to show TLE details & history
Last TLE update: 16 hours ago

TLE from 16 hours ago
0 PEGASUS DEB
1 24007U 94029BC  26264.29124201  .00001968  00000-0  13619-3 0  9995
2 24007  81.9221 166.2800 0059939 270.2018 191.6730 15.03717832639334
Epoch: 2026-09-21T06:59Z
TLE epoch observation values (Epoch: 2026-09-21T06:59:23.309Z)
Latitude
75.84637°
Longitude
-152.77894°
Altitude
609.076 km
Speed
7.539 km/s
True Right ascension
20h 48m 57s
True Declination
75° 45' 46"
Sunlit
Object was in daylight at epoch
Visualization orbit readout
Latitude
Unknown
Longitude
Unknown
Altitude
Unknown
Speed
Unknown
Apparent Right ascension
Unknown
Apparent Declination
Unknown
Sunlit
N/A
Visualization observer readout
Local Sidereal Time
16:01:24
Azimuth
Unknown
Elevation
Unknown
Doppler factor
Unknown
Orbital elements
Apogee altitude
594.003 km
Perigee altitude
510.92 km
Semi-major axis
6,930.598 km
Eccentricity
0.00599
Inclination
81.9221°
RAAN
166.28°
Arg. of periapsis
270.2018°
True anomaly
191.53505°
Mean anomaly
191.673°
Eccentric anomaly
191.60392°
Mean motion
3.76173 °/min
Orbital period
95.7 mins
BSTAR
0.00013619
Loading maneuver chart data...
Computing Atmospheric mass density...

Documentation

Showing up to 5 results
|